Clinton-Sherman, OK

4:55 AM CDT on August 22, 2017 (GMT -0500)
Clinton-Sherman

Weather History for KCSM - February, 2013

Change the Weather History Date:

Friday, February 1, 2013

  Actual Average Record
Temperature  
Mean Temperature 32 °F -  
Max Temperature 45 °F 48 °F 75 °F (2003)
Min Temperature 19 °F 28 °F 5 °F (2011)
Degree Days  
Heating Degree Days 33    
Moisture  
Dew Point 18 °F    
Average Humidity 61    
Maximum Humidity 77    
Minimum Humidity 38    
Precipitation  
Precipitation 0.00 in - - ()
Sea Level Pressure  
Sea Level Pressure 30.29 in    
Wind  
Wind Speed 9 mph (SE)    
Max Wind Speed 22 mph    
Max Gust Speed -    
Visibility 10 miles    
Events      
Averages and records for this station are not official NWS values.
T = Trace of Precipitation, MM = Missing Value Source: NWS Daily Summary

Daily Weather History Graph

Daily Weather History Graph

Search for Another Location

Airport or City:

Trip Planner

Search our weather history database for the weather conditions in past years. The results will help you decide how hot, cold, wet, or windy it might be!

Date:

Astronomy

Feb. 01, 2013 Rise Set
Actual Time 7:35 AM CST 6:05 PM CST
Civil Twilight 7:09 AM CST 6:32 PM CST
Nautical Twilight 6:38 AM CST 7:02 PM CST
Astronomical Twilight 6:09 AM CST 7:32 PM CST
Moon 11:58 PM CST (2/1) 10:24 AM CST (2/1)
Length of Visible Light 11h 22m
Length of Day
10h 29m
Waning Gibbous, 70% of the Moon is Illuminated
Feb 1
Waning Gibbous
Feb 3
Last Quarter
Feb 10
New
Feb 17
First Quarter
Feb 25
Full

Hourly Weather History & Observations

Time (CST) Temp. Windchill Dew Point Humidity Pressure Visibility Wind Dir Wind Speed Gust Speed Precip Events Conditions
12:53 AM 23.0 °F 13.1 °F 15.1 °F 72% 30.39 in 10.0 mi ENE 9.2 mph - N/A   Clear
1:53 AM 21.9 °F 12.5 °F 12.9 °F 68% 30.40 in 10.0 mi NE 8.1 mph - N/A   Clear
2:53 AM 21.0 °F 12.4 °F 12.9 °F 71% 30.40 in 10.0 mi ENE 6.9 mph - N/A   Clear
3:53 AM 21.0 °F 12.4 °F 12.9 °F 71% 30.39 in 10.0 mi ENE 6.9 mph - N/A   Clear
4:53 AM 19.9 °F 13.4 °F 12.0 °F 71% 30.38 in 10.0 mi East 4.6 mph - N/A   Clear
5:53 AM 19.0 °F 12.3 °F 12.0 °F 74% 30.40 in 10.0 mi South 4.6 mph - N/A   Clear
6:53 AM 19.0 °F - 12.9 °F 77% 30.41 in 10.0 mi Calm Calm - N/A   Clear
7:53 AM 19.9 °F 12.1 °F 12.0 °F 71% 30.40 in 10.0 mi SE 5.8 mph - N/A   Clear
9:53 AM 27.0 °F 19.5 °F 15.1 °F 61% 30.40 in 10.0 mi SSE 6.9 mph - N/A   Clear
11:53 AM 34.0 °F 24.6 °F 14.0 °F 44% 30.35 in 10.0 mi SSE 13.8 mph - N/A   Clear
12:53 PM 39.0 °F 29.3 °F 15.1 °F 38% 30.30 in 10.0 mi South 19.6 mph - N/A   Clear
1:53 PM 42.1 °F 32.8 °F 18.0 °F 38% 30.23 in 10.0 mi SSE 21.9 mph - N/A   Clear
2:53 PM 44.1 °F 36.2 °F 19.9 °F 38% 30.20 in 10.0 mi South 18.4 mph - N/A   Clear
3:53 PM 45.0 °F 37.6 °F 21.0 °F 39% 30.17 in 10.0 mi South 17.3 mph - N/A   Clear
4:53 PM 44.1 °F 36.8 °F 21.0 °F 40% 30.16 in 10.0 mi South 16.1 mph - N/A   Clear
5:53 PM 39.0 °F 33.4 °F 21.9 °F 50% 30.16 in 10.0 mi South 8.1 mph - N/A   Clear
6:53 PM 35.1 °F 28.6 °F 21.9 °F 59% 30.17 in 10.0 mi SSE 8.1 mph - N/A   Clear
7:53 PM 30.9 °F 23.5 °F 23.0 °F 72% 30.20 in 10.0 mi NNE 8.1 mph - N/A   Clear
8:53 PM 30.9 °F 24.3 °F 23.0 °F 72% 30.21 in 10.0 mi NNE 6.9 mph - N/A   Clear
9:53 PM 32.0 °F 25.6 °F 21.9 °F 66% 30.21 in 10.0 mi North 6.9 mph - N/A   Clear
10:53 PM 30.9 °F - 24.1 °F 76% 30.21 in 10.0 mi Calm Calm - N/A   Clear
11:53 PM 34.0 °F 29.8 °F 24.1 °F 67% 30.19 in 10.0 mi SSE 4.6 mph - N/A   Clear